Theta_e
280 282 283 282 282 283 281 281 279 282 286 290 295 299 301 305 308 317 315 316 317 316 316 318 318 318 319 317 317 317 316 315 315 314 311 309 308 307 306 306 305 305 303 302
279 284 284 281 283 283 284 283 284 285 286 295 301 301 303 304 306 315 316 317 318 318 318 317 318 319 319 318 317 317 316 315 315 311 310 308 307 305 305 304 302 302 301 300
276 281 281 277 281 283 285 288 287 282 289 298 298 299 302 303 303 306 309 316 318 318 319 320 320 321 319 318 319 317 317 315 312 310 307 305 304 303 302 300 300 298 298 299
275 278 270 280 291 290 287 288 291 292 293 297 298 300 301 301 302 303 307 310 316 317 317 317 316 317 318 318 315 312 309 307 307 304 303 303 302 300 299 299 298 298 297 297
275 273 279 283 289 287 285 284 292 291 293 295 297 298 300 300 302 301 305 311 312 314 310 309 309 310 308 305 305 304 303 302 303 302 300 300 298 297 296 297 296 296 296 296
279 275 273 284 290 293 292 282 291 292 292 293 295 290 294 298 300 300 302 303 303 303 304 303 305 306 305 303 303 301 302 301 300 300 299 298 297 296 296 296 295 295 295 295
279 277 280 289 290 293 282 281 292 293 293 294 293 295 297 298 297 298 299 300 301 301 301 302 302 301 299 299 299 300 300 299 298 298 297 296 295 295 295 294 293 293 292 293
277 274 270 290 289 283 288 292 293 294 294 295 297 297 298 297 296 296 296 297 298 297 296 298 299 298 296 295 298 297 297 296 295 295 296 295 294 293 293 292 290 291 291 292
282 278 289 291 288 290 293 291 291 294 296 298 295 295 294 294 294 295 296 295 296 295 295 295 296 296 294 296 296 296 294 293 294 294 294 293 293 291 291 291 291 292 292 292
286 286 289 290 289 292 293 289 293 295 293 292 289 287 291 292 292 293 294 293 294 293 293 293 295 295 295 295 295 294 292 292 292 291 291 291 291 291 290 290 290 290 290 291
286 289 288 290 289 295 294 295 292 293 292 292 292 292 290 292 292 293 293 294 294 293 292 292 294 294 294 294 293 292 291 291 290 290 290 290 291 291 290 291 291 289 290 289
283 287 284 287 292 296 295 294 294 294 293 294 294 292 292 291 292 292 292 293 292 291 291 292 292 292 293 293 292 290 289 289 290 291 290 290 290 290 291 291 291 290 290 289
288 290 290 294 295 295 295 296 296 295 295 293 294 293 292 291 292 293 292 292 291 290 291 291 291 291 292 292 292 290 290 290 289 291 291 290 290 289 287 290 291 290 290 289
294 294 290 291 290 293 293 295 296 295 295 294 293 292 291 289 290 290 290 290 291 291 290 291 290 290 291 292 291 290 290 291 289 289 289 291 289 289 289 287 287 288 290 289
292 293 292 293 292 291 293 293 292 291 292 292 292 291 291 289 289 289 290 289 289 289 290 290 290 289 291 291 290 290 290 290 289 288 287 289 289 289 289 289 288 288 288 288
293 292 291 290 291 292 293 292 292 291 291 290 289 289 290 290 290 290 289 289 287 286 287 288 289 290 292 290 289 289 289 289 288 286 285 286 287 288 287 287 287 287 287 286
289 288 290 290 291 291 291 292 291 292 292 291 290 290 289 289 289 289 289 289 288 287 287 288 288 290 291 290 288 288 288 288 284 286 285 285 285 285 286 287 286 286 287 287
292 292 293 293 293 294 293 293 293 293 293 293 293 291 289 287 286 287 288 289 289 288 288 288 290 289 289 290 289 288 288 287 287 286 285 285 284 284 284 284 285 285 286 286
296 295 296 296 296 296 295 295 293 294 294 294 293 291 291 290 289 288 288 288 288 287 289 289 290 288 287 289 289 288 288 287 286 285 285 283 283 284 283 283 283 285 285 285
298 297 296 296 299 298 296 297 295 294 294 293 292 290 289 289 289 288 288 287 287 287 288 289 289 287 287 288 288 288 287 287 286 284 284 283 283 283 282 281 282 283 284 284
301 298 296 297 298 299 297 297 295 294 294 293 292 291 289 290 291 290 288 287 290 289 289 289 288 287 288 286 288 287 286 286 285 284 282 282 282 282 281 281 281 282 282 283
303 303 299 299 298 297 298 297 295 295 294 294 295 294 292 291 290 289 290 289 289 284 289 289 288 284 287 284 287 286 285 285 284 284 282 282 281 281 280 280 280 281 282 282
303 303 303 301 301 298 296 296 295 295 295 295 293 288 286 289 289 288 288 291 289 287 290 289 285 284 283 288 287 285 284 283 283 283 282 282 281 280 280 279 279 280 281 281
301 302 303 303 303 301 298 296 296 295 296 295 294 290 290 290 290 291 291 288 285 287 289 288 286 283 283 287 286 285 283 283 282 283 282 281 281 280 280 279 279 280 280 281
297 297 300 300 299 298 299 300 298 297 296 296 296 296 294 293 292 292 292 291 285 288 290 284 284 283 287 287 285 284 283 283 282 282 281 281 280 279 279 279 279 279 279 281
296 297 299 298 296 296 296 297 297 298 298 297 299 299 298 297 295 293 293 290 292 288 290 290 289 288 287 286 285 284 283 282 282 281 280 280 280 279 279 279 279 279 280 281
295 295 297 296 298 298 299 298 298 296 295 298 297 297 298 295 293 292 290 292 291 291 290 290 289 287 287 286 285 284 283 282 281 281 281 280 280 279 279 279 279 279 281 282
Wind_Speed
8 15 16 17 18 20 16 15 11 22 19 15 10 9 12 13 15 7 8 12 16 19 19 19 17 14 12 9 13 14 15 12 10 8 6 5 6 6 6 6 6 6 5 4
11 13 13 17 18 18 16 19 21 24 29 4 7 6 10 12 15 10 11 13 15 15 15 16 15 13 11 12 12 13 12 12 10 10 9 7 7 6 7 7 6 6 5 4
6 10 11 6 5 6 9 14 13 17 16 7 12 14 15 10 13 13 13 9 10 13 14 12 10 8 9 7 7 9 8 8 8 9 8 7 8 7 7 6 6 6 4 2
5 6 3 2 11 12 17 18 14 18 18 19 15 17 8 8 8 12 14 12 9 6 4 4 6 8 8 8 9 10 9 9 9 11 10 7 8 8 5 4 4 3 2 2
3 3 9 2 6 13 16 26 14 14 18 18 18 16 0 11 8 8 10 7 3 5 9 9 11 12 15 14 14 14 13 12 11 11 12 8 8 8 4 4 2 1 2 1
4 4 5 2 6 21 17 14 6 16 18 19 20 14 2 9 10 13 13 13 13 15 15 17 13 15 18 16 16 15 12 12 10 13 9 8 6 5 3 2 1 3 4 3
6 5 7 4 19 19 7 5 18 17 19 17 12 1 7 8 15 14 15 17 16 19 17 16 15 18 21 17 16 12 12 10 13 10 10 5 3 3 1 3 4 3 4 5
4 4 7 20 20 12 13 22 22 18 13 12 6 8 9 7 17 16 19 19 19 19 19 16 17 18 18 18 13 12 11 10 10 6 8 5 6 4 2 3 5 5 5 6
3 6 13 18 17 20 14 8 13 10 6 13 13 12 12 13 18 17 19 18 18 18 17 16 15 15 16 11 10 9 10 9 8 9 6 5 4 6 4 4 3 5 5 5
6 3 14 14 17 16 16 16 18 23 23 17 17 14 14 16 16 17 17 18 17 18 17 12 13 14 12 8 9 11 9 7 6 6 6 4 3 3 2 3 4 5 6 7
7 6 14 8 18 15 14 15 19 23 21 20 15 15 9 12 14 13 15 15 15 16 13 8 15 13 11 7 11 8 7 6 6 6 3 3 4 4 5 5 7 7 7 7
4 9 5 9 15 15 15 17 16 16 16 13 15 14 11 12 11 13 13 12 14 12 11 12 10 12 10 9 6 7 8 5 4 3 2 4 4 4 5 7 8 9 11 9
4 8 8 12 10 15 12 10 9 11 12 13 11 10 13 13 13 17 11 13 12 9 11 10 11 11 7 5 6 7 5 5 5 6 5 6 6 6 6 5 8 9 10 12
6 8 7 8 7 10 9 10 13 11 11 11 11 12 13 12 11 10 10 10 8 10 12 10 10 9 8 7 6 6 5 8 3 4 4 5 4 6 5 6 7 6 6 9
7 6 4 6 9 9 7 7 10 8 9 10 9 10 10 10 11 11 13 13 12 10 8 8 9 9 8 6 6 6 5 5 5 4 4 6 5 5 6 6 7 7 7 6
6 6 7 7 7 7 7 8 8 7 7 7 9 8 7 6 6 8 8 8 7 7 6 6 6 5 5 5 5 5 5 8 5 4 5 6 7 7 7 7 8 7 8 7
2 6 7 5 6 6 5 4 5 5 5 6 6 6 7 6 6 7 7 6 3 4 3 4 4 3 2 4 3 2 2 4 5 5 6 7 7 8 8 7 7 7 8 8
1 3 4 3 4 3 4 4 5 5 4 4 5 6 7 6 5 6 7 6 7 7 6 4 5 7 6 6 5 5 5 6 7 7 7 7 7 7 7 7 8 8 8 9
1 3 4 4 2 2 4 6 6 5 5 5 6 6 4 3 3 2 3 5 5 5 5 6 8 5 4 5 3 3 4 4 5 5 5 7 7 7 7 7 8 8 9 9
3 2 3 4 0 2 4 5 5 5 4 4 5 5 5 5 5 5 5 4 3 3 6 5 3 4 5 7 7 4 5 5 6 6 6 7 7 8 8 9 9 9 9 9
10 4 5 5 5 3 5 4 4 3 1 1 3 3 3 4 4 4 4 4 6 6 5 8 6 4 4 5 5 6 6 6 7 7 7 7 8 8 9 9 9 9 9 9
9 6 3 4 4 3 2 3 4 4 2 1 2 3 4 5 5 6 2 2 5 5 5 4 3 5 5 6 6 7 7 7 7 7 7 7 8 9 9 9 10 10 10 10
1 5 6 5 0 1 0 1 3 4 3 3 3 3 1 3 2 3 4 5 3 4 3 3 5 8 7 6 7 8 8 9 8 7 7 7 8 8 9 10 10 10 10 10
4 5 4 3 0 2 4 4 5 5 4 4 4 3 3 2 3 1 3 4 2 4 2 2 4 6 5 6 7 7 8 8 8 8 8 10 8 8 8 9 10 10 10 12
5 4 4 5 5 3 5 5 5 4 5 4 4 4 5 3 3 2 1 1 0 1 1 2 4 5 5 6 7 7 7 7 7 8 8 8 9 9 10 10 10 11 11 11
6 4 3 4 3 4 4 4 1 2 2 2 4 4 3 3 3 3 3 3 2 1 1 1 2 4 5 6 7 8 8 8 8 8 9 9 9 9 10 11 11 11 11 11
5 7 7 7 5 5 4 5 3 3 2 2 3 1 3 1 3 3 4 3 2 2 1 1 2 3 4 6 7 8 8 8 8 9 9 9 9 9 10 11 11 11 11 10
Wind_Direction
274 263 256 262 264 287 270 249 246 277 281 288 308 309 313 318 307 252 222 185 181 176 179 183 183 179 181 174 164 169 173 172 180 174 145 149 132 134 127 119 118 118 120 95
282 279 268 264 254 258 269 279 265 271 268 318 305 305 320 329 327 263 229 218 198 199 192 188 183 185 176 176 173 162 176 176 156 143 142 149 126 116 123 126 118 116 108 112
280 330 309 289 294 274 282 289 273 268 286 314 330 330 321 336 333 323 316 281 239 221 198 196 191 184 170 148 138 149 147 132 138 126 132 125 124 130 120 109 120 116 97 112
277 320 335 154 32 348 326 293 325 315 312 325 325 316 339 354 330 322 312 296 279 187 169 134 115 101 104 116 107 108 104 108 111 110 99 93 99 93 94 85 79 101 130 233
297 240 288 321 15 352 323 300 306 328 328 327 321 315 137 2 27 5 346 350 359 90 98 88 93 105 97 86 87 84 79 78 67 80 80 64 80 51 0 74 58 298 257 327
296 284 273 247 323 335 313 277 27 338 322 323 326 305 18 7 49 55 49 52 64 74 77 78 78 92 89 83 82 77 65 76 68 88 46 67 56 50 320 20 101 301 313 298
275 266 277 10 337 325 283 292 331 321 309 311 318 79 84 83 69 62 64 67 72 67 70 71 79 84 83 80 74 75 75 63 68 40 78 15 65 123 344 353 326 318 322 295
324 305 316 351 335 327 291 301 294 288 295 308 47 59 84 73 83 73 71 66 63 72 70 66 68 75 81 83 87 86 80 75 62 33 41 37 340 20 347 6 336 308 288 297
278 262 302 338 329 353 354 352 306 251 302 60 46 39 57 51 64 66 67 71 66 61 58 70 65 66 75 71 70 81 83 70 64 65 37 25 8 4 339 337 323 324 318 311
301 280 341 330 327 344 16 20 16 55 65 57 65 39 22 49 55 58 65 64 65 68 53 49 76 69 77 66 75 71 52 76 68 74 52 1 27 324 305 324 327 338 334 330
265 334 311 343 342 8 28 40 45 49 49 55 52 57 49 50 60 65 64 62 63 69 73 41 62 62 61 64 74 59 74 36 47 60 18 5 18 330 353 351 356 352 345 337
326 343 306 300 330 23 34 46 38 53 66 59 60 63 61 61 54 56 58 62 63 61 59 54 59 66 49 45 72 67 56 34 17 34 359 357 341 338 343 329 327 332 331 329
308 282 283 326 343 360 17 26 26 33 47 63 59 64 63 60 50 58 52 59 61 65 70 57 49 63 54 35 42 52 43 19 5 359 349 344 346 337 324 326 309 297 299 291
344 339 351 337 333 344 18 29 47 48 51 52 54 53 56 55 55 51 53 59 66 60 54 47 49 44 25 18 26 39 33 19 358 350 337 319 318 323 324 329 329 323 276 268
329 332 282 316 14 11 15 33 44 39 46 49 47 56 51 46 39 33 36 32 32 37 36 41 41 28 15 5 20 23 14 6 354 341 341 342 328 335 328 318 309 305 318 306
323 337 2 17 5 8 24 20 47 46 47 49 48 49 62 63 51 44 42 40 50 43 28 34 30 6 353 11 13 17 6 356 8 352 356 349 349 339 330 319 318 320 315 312
342 342 341 356 11 12 17 28 51 63 71 61 54 49 45 42 48 41 41 35 63 74 65 35 4 321 328 18 19 352 338 358 359 3 1 347 346 339 319 314 314 307 299 304
254 278 289 339 339 23 23 38 64 62 70 81 69 62 53 43 31 20 9 352 18 24 17 339 354 5 357 348 360 4 359 -0 4 355 340 335 325 313 312 316 304 304 307 316
264 301 330 350 349 17 38 31 32 72 65 71 63 56 64 50 51 30 350 19 19 355 342 344 330 324 322 346 31 7 4 2 347 332 323 312 318 317 319 318 312 310 313 320
321 280 317 335 28 89 72 59 71 61 50 61 62 48 38 17 8 6 1 338 292 273 293 300 338 3 8 17 23 6 0 355 349 341 336 333 329 325 321 318 319 319 321 322
5 32 28 59 45 81 106 113 108 97 71 27 46 33 358 323 331 339 359 359 332 350 350 28 38 23 24 15 10 359 358 354 352 345 337 332 328 331 327 327 326 324 322 324
354 351 31 69 69 64 113 119 120 133 152 267 325 350 352 347 0 359 3 296 313 339 36 37 23 26 26 14 5 358 356 353 348 342 339 337 334 331 328 326 325 324 322 322
71 9 26 28 84 165 235 244 196 181 206 244 261 269 300 288 298 346 346 339 350 29 60 35 20 32 16 9 357 358 356 353 346 340 335 331 328 325 323 322 321 319 320 319
8 2 62 350 106 288 279 265 240 235 218 227 246 194 226 337 358 236 262 297 309 47 61 28 38 31 19 8 2 358 355 349 342 336 332 334 328 325 323 322 320 319 316 316
4 2 335 358 13 337 310 288 227 210 240 249 253 238 227 211 210 268 209 215 35 17 359 48 51 40 25 10 4 359 352 346 339 334 332 330 327 326 324 323 319 317 314 315
8 358 0 1 324 316 314 332 356 192 236 231 242 248 229 215 210 222 207 208 225 289 318 11 68 49 28 13 4 358 351 344 341 337 331 328 325 324 323 323 321 320 317 316
355 354 10 359 2 349 338 346 354 53 25 249 276 260 215 193 201 189 197 202 224 260 302 44 75 66 35 15 6 355 350 347 341 334 332 329 326 324 322 320 319 317 316 319